User: anonymous   Login
Location: Slanting_Bridge
(35.6330°N, 80.9830°W)
Time: 17:20:08
(UTC-05:00)
Language:

Hamsat - Orbit

View from above orbital plane
View from above orbital plane
View from above satellite
View from above satellite

Ground track
Ground track

The orbit data is extracted from the following two-line orbital elements,

1 28650U 05017B   14355.16494002  .00006062  00000-0  68840-3 0  9362
2 28650 097.5648 350.9233 0022998 260.0580 099.8040 14.86451189520990
Epoch (UTC): 21 December 2014 03:57:30
Eccentricity: 0.0022998
inclination: 97.5648°
perigee height: 593 km
apogee height: 625 km
right ascension of ascending node: 350.9233°
argument of perigee: 260.0580°
revolutions per day: 14.86451189
mean anomaly at epoch: 99.8040°
orbit number at epoch: 52099

The dashed part of the orbit path shows where the satellite is in the earth's shadow,  

DLR